Location: Unspecified
(42.9300°N, 71.1866°W)
Time: 11:40:03
(UTC-04:00)

Cosmos 1674 - Visible Passes

Search period start: 27 March 2015 00:00
Search period end: 06 April 2015 00:00
Orbit: 507 x 535 km, 82.5° (Epoch: 26 March)

Date Brightness Start Highest point End Pass type
(mag) Time Alt. Az. Time Alt. Az. Time Alt. Az.
27 Mar 3.7 19:58:26 10° NNE 20:01:42 27° ENE 20:04:01 16° SE visible
27 Mar 5.2 21:34:34 10° NW 21:37:25 20° W 21:39:11 15° WSW visible
28 Mar 3.9 19:45:16 10° NNE 19:48:22 23° ENE 19:51:31 10° SE visible
28 Mar 5.0 21:21:05 10° NW 21:24:09 23° W 21:26:53 11° SW visible
29 Mar 4.1 19:32:07 10° NNE 19:35:00 21° ENE 19:37:59 10° ESE visible
29 Mar 4.8 21:07:37 10° NNW 21:10:53 26° W 21:14:05 10° SSW visible
30 Mar 4.6 20:54:11 10° NNW 20:57:35 30° W 21:00:58 10° SSW visible
31 Mar 4.3 20:40:45 10° NNW 20:44:17 35° W 20:47:49 10° SSW visible
01 Apr 4.0 20:27:20 10° NNW 20:30:59 41° W 20:34:37 10° SSW visible
02 Apr 3.7 20:13:56 10° NNW 20:17:39 48° W 20:21:22 10° SSW visible
03 Apr 3.4 20:00:32 10° NNW 20:04:19 57° W 20:08:07 10° S visible
04 Apr 3.1 19:47:09 10° NNW 19:50:59 68° W 19:54:49 10° S visible
